User: anonymous   Login
Location: Santa Barbara
(34.4500°N, 119.7700°W)
Time: 17:33:47
(UTC-08:00)
Language:

Cosmos 1892 Rocket - Orbit

View from above orbital plane
View from above orbital plane
View from above satellite
View from above satellite

Ground track
Ground track

The orbit data is extracted from the following two-line orbital elements,

1 18422U 87088B   14330.49787712  .00000622  00000-0  74324-4 0  4151
2 18422 082.5107 331.5995 0018177 273.1082 242.6969 14.82521567463455
Epoch (UTC): 26 November 2014 11:56:56
Eccentricity: 0.0018177
inclination: 82.5107°
perigee height: 608 km
apogee height: 634 km
right ascension of ascending node: 331.5995°
argument of perigee: 273.1082°
revolutions per day: 14.82521567
mean anomaly at epoch: 242.6969°
orbit number at epoch: 46345

The dashed part of the orbit path shows where the satellite is in the earth's shadow,  

DLR